Location: *
(49.4547°N, 7.9131°E)
Time: 13:34:36
(UTC+00:00)

Cosmos 1437 Rocket - Pass Details

Date: 22 September 2019
Orbit: 506 x 563 km, 81.2° (Epoch: 14 October)

Event Time Altitude Azimuth Distance (km) Brightness Sun altitude
Rises 18:40:36 0° 353° (N) 2,638 6.6 -12.6°
Reaches altitude 10° 18:42:50 10° 2° (N) 1,741 5.6 -13.0°
Maximum altitude 18:46:27 40° 73° (ENE) 767 3.1 -13.5°
Enters shadow 18:48:25 22° 130° (SE) 1,144 3.9 -13.8°
